User: anonymous   Login
Location: G�ndlingen
(48.0142°N, 7.6396°E)
Time: 19:45:53
(UTC+00:00)
Language:

Cosmos 1680 Rocket - Orbit

View from above orbital plane
View from above orbital plane
View from above satellite
View from above satellite

Ground track
Ground track

The orbit data is extracted from the following two-line orbital elements,

1 16012U 85079B   20263.32337896 +.00000083 +00000-0 +37068-4 0  9992
2 16012 074.0579 112.1475 0013965 078.0066 282.2652 14.36331597834460
Epoch (UTC): 19 September 2020 07:45:39
Eccentricity: 0.0013965
inclination: 74.0579°
perigee height: 760 km
apogee height: 780 km
right ascension of ascending node: 112.1475°
argument of perigee: 78.0066°
revolutions per day: 14.36331597
mean anomaly at epoch: 282.2652°
orbit number at epoch: 83446

The dashed part of the orbit path shows where the satellite is in the earth's shadow,  

DLR